GPS IIR-6

operational
NORAD ID: 26605 Int'l Des: 2000-071 Owner: AFSMC Country: US Constellation: GPS
MEOGNSS

Über GPS IIR-6

Beschreibung wird geladen...

Live-Position

3D-Globus wird geladen...

Nächste Überflüge

Höhenverlauf

Altitude vs Time

uPlot chart will show altitude changes over time

Zweizeiliger Elementsatz

1 26605U 00071A 25260.44643294 .00000025 00000-0 00000-0 0 9995
2 26605 55.4698 105.7325 0165452 263.5894 287.9893 2.00552955182045
Epoch: 17. Sept. 2025 • Age: 24 hours

Aktueller Status

Höhe 20000.0 km
Geschwindigkeit 3.90 km/s
Subsatellitenpunkt -14.66°S, 134.72°E
Startdatum 10. Nov. 2000
Alter 24.8 years
Typ navigation

Technische Details

Klassifizierung Payload
Masse 1077.00 kg
Trockenmasse 910.00 kg
Gesamtmasse 2032.00 kg
Länge 1.50 m
Durchmesser 1.90 m
Spannweite 19.30 m
Form Box + 2 Pan
Hersteller LMMS
Bus-Typ Series 4000
Phasenstatus In Orbit
Besitzer/Staat AFSMC/US

Große Konstellationen

Loading constellations...